Time,TemperatureF,DewpointF,PressureIn,WindDirection,WindDirectionDegrees,WindSpeedMPH,WindSpeedGustMPH,Humidity,HourlyPrecipIn,Conditions,Clouds,dailyrainin,SoftwareType,DateUTC
2013-02-18 00:00:00,21.9,-1.5,29.76,NNW,338,9.8,10.1,35,0.00,,---,0.00,VWS V14.01,2013-02-18 05:00:00,
2013-02-18 00:05:00,21.9,-1.5,29.76,NW,315,8.5,8.5,35,0.00,,---,0.00,VWS V14.01,2013-02-18 05:05:00,
2013-02-18 00:10:00,21.7,-1.7,29.76,NW,315,14.5,14.5,35,0.00,,---,0.00,VWS V14.01,2013-02-18 05:10:00,
2013-02-18 00:15:00,21.7,-1.1,29.76,NW,315,14.8,14.8,36,0.00,,---,0.00,VWS V14.01,2013-02-18 05:15:00,
2013-02-18 00:20:00,21.7,-1.1,29.76,NNW,338,17.7,17.7,36,0.00,,---,0.00,VWS V14.01,2013-02-18 05:20:00,
2013-02-18 00:25:00,21.9,-0.9,29.76,NNW,338,13.6,13.6,36,0.00,,---,0.00,VWS V14.01,2013-02-18 05:25:00,
2013-02-18 00:30:00,21.7,-1.1,29.79,ENE,68,6.3,9.6,36,0.00,,---,0.00,VWS V14.01,2013-02-18 05:30:00,
2013-02-18 00:35:00,21.7,-1.1,29.79,WNW,292,9.6,9.6,36,0.00,,---,0.00,VWS V14.01,2013-02-18 05:35:00,
2013-02-18 00:40:00,21.7,-1.1,29.79,WNW,292,2.7,10.7,36,0.00,,---,0.00,VWS V14.01,2013-02-18 05:40:00,
2013-02-18 00:45:00,21.7,-1.1,29.79,NNW,338,17.0,17.0,36,0.00,,---,0.00,VWS V14.01,2013-02-18 05:45:00,
2013-02-18 00:50:00,21.7,-1.1,29.79,NNW,338,9.4,9.4,36,0.00,,---,0.00,VWS V14.01,2013-02-18 05:50:00,
2013-02-18 00:55:00,21.6,-1.2,29.79,NNE,22,2.2,2.2,36,0.00,,---,0.00,VWS V14.01,2013-02-18 05:55:00,
2013-02-18 01:00:00,21.7,-1.1,29.79,NNW,338,11.0,11.0,36,0.00,,---,0.00,VWS V14.01,2013-02-18 06:00:00,
2013-02-18 01:05:00,21.6,-1.2,29.79,NW,315,19.9,19.9,36,0.00,,---,0.00,VWS V14.01,2013-02-18 06:05:00,
2013-02-18 01:10:00,21.7,-1.1,29.79,NW,315,7.8,8.1,36,0.00,,---,0.00,VWS V14.01,2013-02-18 06:10:00,
2013-02-18 01:15:00,21.6,-1.2,29.79,WNW,292,6.0,8.5,36,0.00,,---,0.00,VWS V14.01,2013-02-18 06:15:00,
2013-02-18 01:20:00,21.6,-1.2,29.79,NNW,338,4.0,4.0,36,0.00,,---,0.00,VWS V14.01,2013-02-18 06:20:00,
2013-02-18 01:25:00,21.6,-1.2,29.79,NNW,338,8.1,8.1,36,0.00,,---,0.00,VWS V14.01,2013-02-18 06:25:00,
2013-02-18 01:30:00,21.6,-1.2,29.79,WNW,292,7.4,7.4,36,0.00,,---,0.00,VWS V14.01,2013-02-18 06:30:00,
2013-02-18 01:35:00,21.4,-1.4,29.79,WNW,292,5.6,5.6,36,0.00,,---,0.00,VWS V14.01,2013-02-18 06:35:00,
2013-02-18 01:40:00,21.4,-1.4,29.79,NNW,338,7.6,7.6,36,0.00,,---,0.00,VWS V14.01,2013-02-18 06:40:00,
2013-02-18 01:45:00,21.4,-1.4,29.79,NW,315,3.8,3.8,36,0.00,,---,0.00,VWS V14.01,2013-02-18 06:45:00,
2013-02-18 01:50:00,21.2,-1.6,29.79,NNE,22,10.3,13.4,36,0.00,,---,0.00,VWS V14.01,2013-02-18 06:50:00,
2013-02-18 01:55:00,21.2,-1.0,29.79,NNW,338,7.6,7.6,37,0.00,,---,0.00,VWS V14.01,2013-02-18 06:55:00,
2013-02-18 02:00:00,21.2,-1.0,29.79,NNE,22,3.1,9.4,37,0.00,,---,0.00,VWS V14.01,2013-02-18 07:00:00,
2013-02-18 02:05:00,21.2,-1.0,29.79,NNW,338,8.1,8.1,37,0.00,,---,0.00,VWS V14.01,2013-02-18 07:05:00,
2013-02-18 02:10:00,21.2,-1.0,29.79,ENE,68,10.1,10.1,37,0.00,,---,0.00,VWS V14.01,2013-02-18 07:10:00,
2013-02-18 02:15:00,21.2,-1.0,29.79,NNE,22,10.1,10.1,37,0.00,,---,0.00,VWS V14.01,2013-02-18 07:15:00,
2013-02-18 02:20:00,21.2,-1.0,29.79,NE,45,4.7,12.1,37,0.00,,---,0.00,VWS V14.01,2013-02-18 07:20:00,
2013-02-18 02:25:00,21.0,-1.2,29.79,NNW,338,3.6,7.8,37,0.00,,---,0.00,VWS V14.01,2013-02-18 07:25:00,
2013-02-18 02:30:00,21.0,-1.2,29.82,WNW,292,6.3,7.4,37,0.00,,---,0.00,VWS V14.01,2013-02-18 07:30:00,
2013-02-18 02:35:00,21.0,-1.2,29.82,NNW,338,25.3,25.3,37,0.00,,---,0.00,VWS V14.01,2013-02-18 07:35:00,
2013-02-18 02:40:00,20.8,-1.3,29.82,WNW,292,10.1,10.1,37,0.00,,---,0.00,VWS V14.01,2013-02-18 07:40:00,
2013-02-18 02:45:00,21.0,-1.2,29.82,NNW,338,7.4,7.4,37,0.00,,---,0.00,VWS V14.01,2013-02-18 07:45:00,
2013-02-18 02:50:00,21.0,-1.2,29.82,WNW,292,5.4,8.5,37,0.00,,---,0.00,VWS V14.01,2013-02-18 07:50:00,
2013-02-18 02:55:00,21.0,-1.2,29.82,WSW,248,9.4,9.4,37,0.00,,---,0.00,VWS V14.01,2013-02-18 07:55:00,
2013-02-18 03:00:00,20.8,-1.3,29.82,NNW,338,9.2,9.2,37,0.00,,---,0.00,VWS V14.01,2013-02-18 08:00:00,
2013-02-18 03:05:00,20.8,-1.3,29.82,WNW,292,5.6,5.6,37,0.00,,---,0.00,VWS V14.01,2013-02-18 08:05:00,
2013-02-18 03:10:00,20.8,-1.3,29.82,NNW,338,16.6,16.6,37,0.00,,---,0.00,VWS V14.01,2013-02-18 08:10:00,
2013-02-18 03:15:00,20.8,-1.3,29.82,NW,315,5.8,9.8,37,0.00,,---,0.00,VWS V14.01,2013-02-18 08:15:00,
2013-02-18 03:20:00,20.8,-1.3,29.82,NNW,338,5.8,5.8,37,0.00,,---,0.00,VWS V14.01,2013-02-18 08:20:00,
2013-02-18 03:25:00,20.8,-1.3,29.82,NNW,338,6.5,8.5,37,0.00,,---,0.00,VWS V14.01,2013-02-18 08:25:00,
2013-02-18 03:30:00,20.7,-1.5,29.82,NNW,338,8.5,8.5,37,0.00,,---,0.00,VWS V14.01,2013-02-18 08:30:00,
2013-02-18 03:35:00,20.8,-1.3,29.82,North,0,10.3,10.3,37,0.00,,---,0.00,VWS V14.01,2013-02-18 08:35:00,
2013-02-18 03:40:00,20.8,-1.3,29.82,NNW,338,11.0,11.0,37,0.00,,---,0.00,VWS V14.01,2013-02-18 08:40:00,
2013-02-18 03:45:00,20.8,-1.3,29.82,NNW,338,12.1,12.1,37,0.00,,---,0.00,VWS V14.01,2013-02-18 08:45:00,
2013-02-18 03:50:00,20.7,-1.5,29.82,WNW,292,13.2,13.2,37,0.00,,---,0.00,VWS V14.01,2013-02-18 08:50:00,
2013-02-18 03:55:00,20.7,-1.5,29.82,NNW,338,5.6,7.8,37,0.00,,---,0.00,VWS V14.01,2013-02-18 08:55:00,
2013-02-18 04:00:00,20.5,-1.6,29.85,WNW,292,10.3,10.3,37,0.00,,---,0.00,VWS V14.01,2013-02-18 09:00:00,
2013-02-18 04:05:00,20.7,-1.5,29.85,NNW,338,4.3,4.3,37,0.00,,---,0.00,VWS V14.01,2013-02-18 09:05:00,
2013-02-18 04:10:00,20.7,-0.9,29.85,NW,315,17.7,17.7,38,0.00,,---,0.00,VWS V14.01,2013-02-18 09:10:00,
2013-02-18 04:15:00,20.7,-1.5,29.85,ESE,112,3.6,3.6,37,0.00,,---,0.00,VWS V14.01,2013-02-18 09:15:00,
2013-02-18 04:20:00,20.5,-1.6,29.85,NNW,338,13.0,13.0,37,0.00,,---,0.00,VWS V14.01,2013-02-18 09:20:00,
2013-02-18 04:25:00,20.5,-1.6,29.85,WNW,292,8.1,8.1,37,0.00,,---,0.00,VWS V14.01,2013-02-18 09:25:00,
2013-02-18 04:30:00,20.3,-1.2,29.88,NNW,338,7.4,7.4,38,0.00,,---,0.00,VWS V14.01,2013-02-18 09:30:00,
2013-02-18 04:35:00,20.5,-1.1,29.88,NNW,338,4.3,5.8,38,0.00,,---,0.00,VWS V14.01,2013-02-18 09:35:00,
2013-02-18 04:40:00,20.5,-1.1,29.88,ENE,68,6.0,6.0,38,0.00,,---,0.00,VWS V14.01,2013-02-18 09:40:00,
2013-02-18 04:45:00,20.3,-1.8,29.88,NW,315,6.3,7.2,37,0.00,,---,0.00,VWS V14.01,2013-02-18 09:45:00,
2013-02-18 04:50:00,20.5,-1.1,29.88,NNW,338,8.5,8.5,38,0.00,,---,0.00,VWS V14.01,2013-02-18 09:50:00,
2013-02-18 04:55:00,20.3,-1.2,29.88,NNW,338,6.0,13.0,38,0.00,,---,0.00,VWS V14.01,2013-02-18 09:55:00,
2013-02-18 05:00:00,20.3,-1.2,29.88,NNW,338,6.0,15.2,38,0.00,,---,0.00,VWS V14.01,2013-02-18 10:00:00,
2013-02-18 05:05:00,20.3,-1.2,29.88,NNE,22,3.4,3.4,38,0.00,,---,0.00,VWS V14.01,2013-02-18 10:05:00,
2013-02-18 05:10:00,20.3,-1.2,29.88,WNW,292,9.8,9.8,38,0.00,,---,0.00,VWS V14.01,2013-02-18 10:10:00,
2013-02-18 05:15:00,20.3,-1.2,29.88,SSE,158,15.2,15.2,38,0.00,,---,0.00,VWS V14.01,2013-02-18 10:15:00,
2013-02-18 05:20:00,20.3,-1.2,29.88,NNE,22,4.0,6.5,38,0.00,,---,0.00,VWS V14.01,2013-02-18 10:20:00,
2013-02-18 05:25:00,20.3,-1.2,29.88,WNW,292,7.6,13.0,38,0.00,,---,0.00,VWS V14.01,2013-02-18 10:25:00,
2013-02-18 05:30:00,20.3,-1.2,29.91,North,0,7.4,8.1,38,0.00,,---,0.00,VWS V14.01,2013-02-18 10:30:00,
2013-02-18 05:35:00,20.3,-1.2,29.91,NNW,338,12.3,13.4,38,0.00,,---,0.00,VWS V14.01,2013-02-18 10:35:00,
2013-02-18 05:40:00,20.3,-0.7,29.91,NE,45,10.1,10.1,39,0.00,,---,0.00,VWS V14.01,2013-02-18 10:40:00,
2013-02-18 05:45:00,20.3,-0.7,29.91,NNE,22,8.7,8.7,39,0.00,,---,0.00,VWS V14.01,2013-02-18 10:45:00,
2013-02-18 05:50:00,20.3,-0.7,29.91,NW,315,10.7,10.7,39,0.00,,---,0.00,VWS V14.01,2013-02-18 10:50:00,
2013-02-18 05:55:00,20.3,-0.7,29.91,ENE,68,3.4,13.4,39,0.00,,---,0.00,VWS V14.01,2013-02-18 10:55:00,
2013-02-18 06:00:00,20.3,-0.7,29.91,WNW,292,5.4,6.0,39,0.00,,---,0.00,VWS V14.01,2013-02-18 11:00:00,
2013-02-18 06:05:00,20.3,-0.7,29.91,NNW,338,8.7,10.5,39,0.00,,---,0.00,VWS V14.01,2013-02-18 11:05:00,
2013-02-18 06:10:00,20.1,-0.9,29.91,ENE,68,5.6,5.6,39,0.00,,---,0.00,VWS V14.01,2013-02-18 11:10:00,
2013-02-18 06:15:00,20.1,-0.9,29.91,NNW,338,4.0,13.0,39,0.00,,---,0.00,VWS V14.01,2013-02-18 11:15:00,
2013-02-18 06:20:00,20.1,-0.9,29.91,NNW,338,4.9,6.0,39,0.00,,---,0.00,VWS V14.01,2013-02-18 11:20:00,
2013-02-18 06:25:00,20.3,-0.7,29.91,NNW,338,6.5,6.5,39,0.00,,---,0.00,VWS V14.01,2013-02-18 11:25:00,
2013-02-18 06:30:00,20.1,-0.9,29.91,NE,45,5.6,5.6,39,0.00,,---,0.00,VWS V14.01,2013-02-18 11:30:00,
2013-02-18 06:35:00,20.1,-0.9,29.91,NNW,338,15.2,15.2,39,0.00,,---,0.00,VWS V14.01,2013-02-18 11:35:00,
2013-02-18 06:40:00,20.1,-0.3,29.91,North,0,3.4,3.4,40,0.00,,---,0.00,VWS V14.01,2013-02-18 11:40:00,
2013-02-18 06:45:00,20.1,-0.3,29.94,North,0,5.6,6.5,40,0.00,,---,0.00,VWS V14.01,2013-02-18 11:45:00,
2013-02-18 06:50:00,20.1,-0.3,29.94,ENE,68,9.6,9.6,40,0.00,,---,0.00,VWS V14.01,2013-02-18 11:50:00,
2013-02-18 06:55:00,20.1,-0.3,29.94,NNW,338,11.0,11.0,40,0.00,,---,0.00,VWS V14.01,2013-02-18 11:55:00,
2013-02-18 07:00:00,20.3,-0.2,29.94,NNE,22,9.8,9.8,40,0.00,,---,0.00,VWS V14.01,2013-02-18 12:00:00,
2013-02-18 07:05:00,20.3,-0.2,29.94,WNW,292,12.1,12.1,40,0.00,,---,0.00,VWS V14.01,2013-02-18 12:05:00,
2013-02-18 07:10:00,20.3,-0.2,29.94,NNE,22,7.8,7.8,40,0.00,,---,0.00,VWS V14.01,2013-02-18 12:10:00,
2013-02-18 07:15:00,20.3,-0.2,29.94,NNW,338,6.0,6.0,40,0.00,,---,0.00,VWS V14.01,2013-02-18 12:15:00,
2013-02-18 07:20:00,20.5,0.0,29.94,NW,315,12.1,12.1,40,0.00,,---,0.00,VWS V14.01,2013-02-18 12:20:00,
2013-02-18 07:25:00,20.8,0.3,29.94,NNW,338,3.6,8.5,40,0.00,,---,0.00,VWS V14.01,2013-02-18 12:25:00,
2013-02-18 07:30:00,20.8,0.3,29.97,NNE,22,13.2,13.2,40,0.00,,---,0.00,VWS V14.01,2013-02-18 12:30:00,
2013-02-18 07:35:00,21.2,0.7,29.97,WNW,292,6.0,6.0,40,0.00,,---,0.00,VWS V14.01,2013-02-18 12:35:00,
2013-02-18 07:40:00,21.2,0.7,29.97,NNE,22,3.6,4.7,40,0.00,,---,0.00,VWS V14.01,2013-02-18 12:40:00,
2013-02-18 07:45:00,21.6,1.0,29.97,WNW,292,11.0,11.0,40,0.00,,---,0.00,VWS V14.01,2013-02-18 12:45:00,
2013-02-18 07:50:00,21.7,1.1,29.97,ESE,112,10.3,10.3,40,0.00,,---,0.00,VWS V14.01,2013-02-18 12:50:00,
2013-02-18 07:55:00,21.7,1.1,29.97,NNW,338,8.1,8.1,40,0.00,,---,0.00,VWS V14.01,2013-02-18 12:55:00,
2013-02-18 08:00:00,21.7,1.1,29.97,ENE,68,5.6,5.6,40,0.00,,---,0.00,VWS V14.01,2013-02-18 13:00:00,
2013-02-18 08:05:00,21.9,1.3,29.97,NNW,338,10.1,13.0,40,0.00,,---,0.00,VWS V14.01,2013-02-18 13:05:00,
2013-02-18 08:10:00,22.5,1.8,29.97,NNW,338,2.0,2.0,40,0.00,,---,0.00,VWS V14.01,2013-02-18 13:10:00,
2013-02-18 08:15:00,22.5,1.3,29.97,NW,315,12.8,12.8,39,0.00,,---,0.00,VWS V14.01,2013-02-18 13:15:00,
2013-02-18 08:20:00,23.4,2.1,29.97,NW,315,6.0,8.7,39,0.00,,---,0.00,VWS V14.01,2013-02-18 13:20:00,
2013-02-18 08:25:00,23.5,2.2,29.97,NNW,338,10.5,10.5,39,0.00,,---,0.00,VWS V14.01,2013-02-18 13:25:00,
2013-02-18 08:30:00,23.7,1.8,30.00,NNW,338,5.6,7.8,38,0.00,,---,0.00,VWS V14.01,2013-02-18 13:30:00,
2013-02-18 08:36:00,25.3,3.9,30.00,NNW,338,5.6,6.3,39,0.00,,---,0.00,VWS V14.01,2013-02-18 13:36:00,
2013-02-18 08:41:00,26.1,3.9,30.00,NNE,22,4.3,14.8,38,0.00,,---,0.00,VWS V14.01,2013-02-18 13:41:00,
2013-02-18 08:46:00,25.5,2.9,29.97,NNW,338,4.3,14.8,37,0.00,,---,0.00,VWS V14.01,2013-02-18 13:46:00,
2013-02-18 08:51:00,26.1,3.9,29.97,NNW,338,7.4,7.4,38,0.00,,---,0.00,VWS V14.01,2013-02-18 13:51:00,
2013-02-18 08:56:00,26.2,3.5,29.97,NNE,22,5.6,5.6,37,0.00,,---,0.00,VWS V14.01,2013-02-18 13:56:00,
2013-02-18 09:01:00,26.6,3.8,30.00,NNW,338,10.7,10.7,37,0.00,,---,0.00,VWS V14.01,2013-02-18 14:01:00,
2013-02-18 09:06:00,26.6,3.3,30.00,NNW,338,5.6,5.6,36,0.00,,---,0.00,VWS V14.01,2013-02-18 14:06:00,
2013-02-18 09:11:00,27.0,4.2,30.00,North,0,1.6,4.0,37,0.00,,---,0.00,VWS V14.01,2013-02-18 14:11:00,
2013-02-18 09:16:00,27.5,4.7,30.00,NNE,22,2.5,3.4,37,0.00,,---,0.00,VWS V14.01,2013-02-18 14:16:00,
2013-02-18 09:21:00,27.7,4.2,30.00,WNW,292,6.3,6.3,36,0.00,,---,0.00,VWS V14.01,2013-02-18 14:21:00,
2013-02-18 09:26:00,28.0,4.5,30.00,NW,315,12.5,12.5,36,0.00,,---,0.00,VWS V14.01,2013-02-18 14:26:00,
2013-02-18 09:31:00,28.0,4.5,30.00,NNW,338,7.4,7.4,36,0.00,,---,0.00,VWS V14.01,2013-02-18 14:31:00,
2013-02-18 09:36:00,27.3,3.3,30.00,NW,315,3.4,3.8,35,0.00,,---,0.00,VWS V14.01,2013-02-18 14:36:00,
2013-02-18 09:41:00,28.0,3.9,30.00,WNW,292,3.8,3.8,35,0.00,,---,0.00,VWS V14.01,2013-02-18 14:41:00,
2013-02-18 09:46:00,29.1,4.9,30.00,NW,315,6.5,7.6,35,0.00,,---,0.00,VWS V14.01,2013-02-18 14:46:00,
2013-02-18 09:51:00,29.8,6.2,30.00,NW,315,6.0,10.5,36,0.00,,---,0.00,VWS V14.01,2013-02-18 14:51:00,
2013-02-18 09:56:00,29.1,4.3,30.00,West,270,5.6,7.8,34,0.00,,---,0.00,VWS V14.01,2013-02-18 14:56:00,
2013-02-18 10:00:00,30.2,5.9,30.00,WNW,292,9.6,9.6,35,0.00,,---,0.00,VWS V14.01,2013-02-18 15:00:00,
2013-02-18 10:05:00,30.9,6.5,30.00,WNW,292,6.0,7.6,35,0.00,,---,0.00,VWS V14.01,2013-02-18 15:05:00,
2013-02-18 10:10:00,31.6,7.1,30.00,NNE,22,5.6,8.1,35,0.00,,---,0.00,VWS V14.01,2013-02-18 15:10:00,
2013-02-18 10:15:00,32.2,7.0,30.00,NNE,22,7.4,7.4,34,0.00,,---,0.00,VWS V14.01,2013-02-18 15:15:00,
2013-02-18 10:20:00,33.8,9.1,30.00,NNW,338,5.6,5.6,35,0.00,,---,0.00,VWS V14.01,2013-02-18 15:20:00,
2013-02-18 10:25:00,34.2,8.7,30.00,NNW,338,4.9,10.3,34,0.00,,---,0.00,VWS V14.01,2013-02-18 15:25:00,
2013-02-18 10:30:00,34.2,8.7,30.00,NNW,338,7.6,7.6,34,0.00,,---,0.00,VWS V14.01,2013-02-18 15:30:00,
2013-02-18 10:35:00,33.8,7.8,30.00,NNW,338,2.9,5.6,33,0.00,,---,0.00,VWS V14.01,2013-02-18 15:35:00,
2013-02-18 10:40:00,34.5,8.4,30.00,NNW,338,9.0,9.0,33,0.00,,---,0.00,VWS V14.01,2013-02-18 15:40:00,
2013-02-18 10:45:00,34.0,7.9,30.00,WNW,292,12.5,12.5,33,0.00,,---,0.00,VWS V14.01,2013-02-18 15:45:00,
2013-02-18 10:50:00,33.8,7.1,30.00,NNW,338,3.6,3.6,32,0.00,,---,0.00,VWS V14.01,2013-02-18 15:50:00,
2013-02-18 10:55:00,35.8,9.5,30.00,WNW,292,10.7,13.2,33,0.00,,---,0.00,VWS V14.01,2013-02-18 15:55:00,
2013-02-18 11:00:00,35.4,9.2,30.00,WNW,292,6.5,6.5,33,0.00,,---,0.00,VWS V14.01,2013-02-18 16:00:00,
2013-02-18 11:05:00,35.8,8.8,30.00,NNW,338,4.0,8.1,32,0.00,,---,0.00,VWS V14.01,2013-02-18 16:05:00,
2013-02-18 11:10:00,34.5,7.7,30.00,NW,315,3.8,5.6,32,0.00,,---,0.00,VWS V14.01,2013-02-18 16:10:00,
2013-02-18 11:15:00,36.3,9.3,30.00,North,0,3.1,3.1,32,0.00,,---,0.00,VWS V14.01,2013-02-18 16:15:00,
2013-02-18 11:20:00,36.9,9.8,30.00,NW,315,10.5,10.5,32,0.00,,---,0.00,VWS V14.01,2013-02-18 16:20:00,
2013-02-18 11:25:00,37.4,10.2,30.00,WNW,292,7.8,7.8,32,0.00,,---,0.00,VWS V14.01,2013-02-18 16:25:00,
2013-02-18 11:30:00,37.6,10.4,30.00,NNW,338,4.3,12.8,32,0.00,,---,0.00,VWS V14.01,2013-02-18 16:30:00,
2013-02-18 11:35:00,37.4,10.2,30.00,NNW,338,11.0,11.0,32,0.00,,---,0.00,VWS V14.01,2013-02-18 16:35:00,
2013-02-18 11:40:00,36.9,9.8,30.00,NW,315,6.0,6.0,32,0.00,,---,0.00,VWS V14.01,2013-02-18 16:40:00,
2013-02-18 11:45:00,37.4,9.5,30.00,NNE,22,3.8,8.7,31,0.00,,---,0.00,VWS V14.01,2013-02-18 16:45:00,
2013-02-18 11:50:00,36.9,9.1,30.00,WNW,292,11.0,11.0,31,0.00,,---,0.00,VWS V14.01,2013-02-18 16:50:00,
2013-02-18 11:55:00,37.6,9.7,30.00,WSW,248,7.4,9.8,31,0.00,,---,0.00,VWS V14.01,2013-02-18 16:55:00,
2013-02-18 12:00:00,37.9,10.0,30.00,WNW,292,13.6,13.6,31,0.00,,---,0.00,VWS V14.01,2013-02-18 17:00:00,
2013-02-18 12:05:00,37.6,9.7,30.00,NNE,22,7.4,7.4,31,0.00,,---,0.00,VWS V14.01,2013-02-18 17:05:00,
2013-02-18 12:10:00,37.6,9.7,30.00,NNE,22,6.3,6.5,31,0.00,,---,0.00,VWS V14.01,2013-02-18 17:10:00,
2013-02-18 12:15:00,38.5,10.5,29.97,NNW,338,13.2,13.2,31,0.00,,---,0.00,VWS V14.01,2013-02-18 17:15:00,
2013-02-18 12:20:00,39.4,11.3,29.97,NNE,22,3.6,7.6,31,0.00,,---,0.00,VWS V14.01,2013-02-18 17:20:00,
2013-02-18 12:25:00,38.8,10.8,29.97,WNW,292,11.0,11.0,31,0.00,,---,0.00,VWS V14.01,2013-02-18 17:25:00,
2013-02-18 12:30:00,39.0,11.0,29.97,NNE,22,5.8,5.8,31,0.00,,---,0.00,VWS V14.01,2013-02-18 17:30:00,
2013-02-18 12:35:00,39.6,10.7,29.97,NW,315,5.4,6.3,30,0.00,,---,0.00,VWS V14.01,2013-02-18 17:35:00,
2013-02-18 12:40:00,38.7,10.6,29.97,WNW,292,9.8,9.8,31,0.00,,---,0.00,VWS V14.01,2013-02-18 17:40:00,
2013-02-18 12:45:00,39.9,11.0,29.97,NW,315,8.7,10.3,30,0.00,,---,0.00,VWS V14.01,2013-02-18 17:45:00,
2013-02-18 12:50:00,39.6,10.7,29.97,NW,315,6.0,6.0,30,0.00,,---,0.00,VWS V14.01,2013-02-18 17:50:00,
2013-02-18 12:55:00,40.6,12.4,29.97,SSW,202,5.4,5.8,31,0.00,,---,0.00,VWS V14.01,2013-02-18 17:55:00,
2013-02-18 13:00:00,41.0,12.0,29.97,NNE,22,12.5,12.5,30,0.00,,---,0.00,VWS V14.01,2013-02-18 18:00:00,
2013-02-18 13:05:00,41.7,13.3,29.97,NW,315,10.1,10.1,31,0.00,,---,0.00,VWS V14.01,2013-02-18 18:05:00,
2013-02-18 13:10:00,40.8,11.8,29.97,NE,45,3.4,8.5,30,0.00,,---,0.00,VWS V14.01,2013-02-18 18:10:00,
2013-02-18 13:15:00,40.8,11.8,29.94,NNW,338,5.6,9.6,30,0.00,,---,0.00,VWS V14.01,2013-02-18 18:15:00,
2013-02-18 13:20:00,39.9,11.0,29.94,NNW,338,6.0,6.3,30,0.00,,---,0.00,VWS V14.01,2013-02-18 18:20:00,
2013-02-18 13:25:00,40.5,11.5,29.94,NNW,338,8.1,8.1,30,0.00,,---,0.00,VWS V14.01,2013-02-18 18:25:00,
2013-02-18 13:30:00,40.6,11.6,29.94,NNW,338,5.6,5.6,30,0.00,,---,0.00,VWS V14.01,2013-02-18 18:30:00,
2013-02-18 13:35:00,40.5,11.5,29.94,WNW,292,4.9,5.8,30,0.00,,---,0.00,VWS V14.01,2013-02-18 18:35:00,
2013-02-18 13:40:00,41.2,12.1,29.94,NNW,338,3.4,9.8,30,0.00,,---,0.00,VWS V14.01,2013-02-18 18:40:00,
2013-02-18 13:45:00,40.6,11.6,29.94,NNW,338,12.8,12.8,30,0.00,,---,0.00,VWS V14.01,2013-02-18 18:45:00,
2013-02-18 13:50:00,40.5,11.5,29.94,NNE,22,6.3,6.3,30,0.00,,---,0.00,VWS V14.01,2013-02-18 18:50:00,
2013-02-18 13:55:00,40.5,11.5,29.94,NNW,338,6.3,8.1,30,0.00,,---,0.00,VWS V14.01,2013-02-18 18:55:00,
2013-02-18 14:00:00,40.3,11.3,29.94,NW,315,7.2,7.2,30,0.00,,---,0.00,VWS V14.01,2013-02-18 19:00:00,
2013-02-18 14:05:00,40.8,11.8,29.94,NW,315,5.4,5.4,30,0.00,,---,0.00,VWS V14.01,2013-02-18 19:05:00,
2013-02-18 14:10:00,41.0,11.2,29.94,NNW,338,4.0,4.0,29,0.00,,---,0.00,VWS V14.01,2013-02-18 19:10:00,
2013-02-18 14:15:00,40.6,11.6,29.91,NNE,22,6.0,6.0,30,0.00,,---,0.00,VWS V14.01,2013-02-18 19:15:00,
2013-02-18 14:20:00,40.8,11.8,29.91,NNE,22,4.5,4.5,30,0.00,,---,0.00,VWS V14.01,2013-02-18 19:20:00,
2013-02-18 14:25:00,41.0,12.0,29.91,NW,315,4.0,5.6,30,0.00,,---,0.00,VWS V14.01,2013-02-18 19:25:00,
2013-02-18 14:30:00,41.0,12.0,29.91,NE,45,2.0,3.4,30,0.00,,---,0.00,VWS V14.01,2013-02-18 19:30:00,
2013-02-18 14:35:00,41.5,12.4,29.91,NNW,338,4.9,4.9,30,0.00,,---,0.00,VWS V14.01,2013-02-18 19:35:00,
2013-02-18 14:40:00,40.6,11.6,29.91,ENE,68,3.4,5.8,30,0.00,,---,0.00,VWS V14.01,2013-02-18 19:40:00,
2013-02-18 14:45:00,41.0,12.0,29.91,North,0,12.3,12.3,30,0.00,,---,0.00,VWS V14.01,2013-02-18 19:45:00,
2013-02-18 14:50:00,41.0,12.0,29.91,NW,315,5.4,6.0,30,0.00,,---,0.00,VWS V14.01,2013-02-18 19:50:00,
2013-02-18 14:55:00,40.3,11.3,29.91,WNW,292,5.6,5.6,30,0.00,,---,0.00,VWS V14.01,2013-02-18 19:55:00,
2013-02-18 15:00:00,40.8,11.8,29.91,WNW,292,6.0,8.7,30,0.00,,---,0.00,VWS V14.01,2013-02-18 20:00:00,
2013-02-18 15:05:00,40.6,11.6,29.91,NNW,338,4.0,5.6,30,0.00,,---,0.00,VWS V14.01,2013-02-18 20:05:00,
2013-02-18 15:10:00,41.2,12.1,29.91,WNW,292,4.0,4.0,30,0.00,,---,0.00,VWS V14.01,2013-02-18 20:10:00,
2013-02-18 15:15:00,40.8,11.8,29.91,NNW,338,6.7,6.7,30,0.00,,---,0.00,VWS V14.01,2013-02-18 20:15:00,
2013-02-18 15:20:00,40.6,11.6,29.91,WNW,292,2.0,4.7,30,0.00,,---,0.00,VWS V14.01,2013-02-18 20:20:00,
2013-02-18 15:25:00,40.8,11.8,29.91,WNW,292,4.9,8.5,30,0.00,,---,0.00,VWS V14.01,2013-02-18 20:25:00,
2013-02-18 15:30:00,40.8,11.8,29.91,NNW,338,6.5,6.5,30,0.00,,---,0.00,VWS V14.01,2013-02-18 20:30:00,
2013-02-18 15:36:00,40.3,11.3,29.91,WSW,248,7.6,7.6,30,0.00,,---,0.00,VWS V14.01,2013-02-18 20:36:00,
2013-02-18 15:41:00,40.3,11.3,29.91,WNW,292,5.8,8.1,30,0.00,,---,0.00,VWS V14.01,2013-02-18 20:41:00,
2013-02-18 15:45:00,39.9,11.0,29.91,WNW,292,8.1,8.1,30,0.00,,---,0.00,VWS V14.01,2013-02-18 20:45:00,
2013-02-18 15:50:00,39.9,11.0,29.91,WSW,248,8.7,8.7,30,0.00,,---,0.00,VWS V14.01,2013-02-18 20:50:00,
2013-02-18 15:55:00,39.4,10.5,29.91,NW,315,4.0,5.8,30,0.00,,---,0.00,VWS V14.01,2013-02-18 20:55:00,
2013-02-18 16:00:00,39.4,10.5,29.91,ENE,68,7.8,7.8,30,0.00,,---,0.00,VWS V14.01,2013-02-18 21:00:00,
2013-02-18 16:06:00,39.6,10.7,29.91,NNW,338,12.5,12.5,30,0.00,,---,0.00,VWS V14.01,2013-02-18 21:06:00,
2013-02-18 16:11:00,39.4,10.5,29.91,NW,315,10.7,10.7,30,0.00,,---,0.00,VWS V14.01,2013-02-18 21:11:00,
2013-02-18 16:16:00,39.4,10.5,29.91,NW,315,7.6,7.6,30,0.00,,---,0.00,VWS V14.01,2013-02-18 21:16:00,
2013-02-18 16:21:00,39.2,10.4,29.91,NW,315,7.6,7.6,30,0.00,,---,0.00,VWS V14.01,2013-02-18 21:21:00,
2013-02-18 16:26:00,39.0,11.0,29.91,WNW,292,3.1,10.1,31,0.00,,---,0.00,VWS V14.01,2013-02-18 21:26:00,
2013-02-18 16:31:00,38.8,10.8,29.91,WNW,292,3.8,8.1,31,0.00,,---,0.00,VWS V14.01,2013-02-18 21:31:00,
2013-02-18 16:36:00,38.7,10.6,29.91,WSW,248,7.8,10.7,31,0.00,,---,0.00,VWS V14.01,2013-02-18 21:36:00,
2013-02-18 16:41:00,38.5,10.5,29.91,West,270,7.6,7.6,31,0.00,,---,0.00,VWS V14.01,2013-02-18 21:41:00,
2013-02-18 16:46:00,38.1,10.2,29.91,NNW,338,5.6,7.6,31,0.00,,---,0.00,VWS V14.01,2013-02-18 21:46:00,
2013-02-18 16:51:00,37.9,10.0,29.91,NNE,22,3.4,4.3,31,0.00,,---,0.00,VWS V14.01,2013-02-18 21:51:00,
2013-02-18 16:56:00,37.8,9.9,29.91,West,270,4.7,6.0,31,0.00,,---,0.00,VWS V14.01,2013-02-18 21:56:00,
2013-02-18 17:01:00,37.6,9.7,29.91,NNW,338,2.7,4.0,31,0.00,,---,0.00,VWS V14.01,2013-02-18 22:01:00,
2013-02-18 17:06:00,37.6,9.7,29.91,NNW,338,3.8,4.3,31,0.00,,---,0.00,VWS V14.01,2013-02-18 22:06:00,
2013-02-18 17:11:00,37.4,9.5,29.91,WNW,292,2.7,2.7,31,0.00,,---,0.00,VWS V14.01,2013-02-18 22:11:00,
2013-02-18 17:16:00,37.0,9.2,29.91,NW,315,7.6,7.6,31,0.00,,---,0.00,VWS V14.01,2013-02-18 22:16:00,
2013-02-18 17:21:00,36.9,9.1,29.91,WNW,292,3.8,5.8,31,0.00,,---,0.00,VWS V14.01,2013-02-18 22:21:00,
2013-02-18 17:26:00,36.5,8.8,29.91,NNW,338,7.2,7.2,31,0.00,,---,0.00,VWS V14.01,2013-02-18 22:26:00,
2013-02-18 17:31:00,36.5,9.5,29.91,WNW,292,4.0,4.0,32,0.00,,---,0.00,VWS V14.01,2013-02-18 22:31:00,
2013-02-18 17:36:00,36.1,9.1,29.91,NW,315,3.4,5.4,32,0.00,,---,0.00,VWS V14.01,2013-02-18 22:36:00,
2013-02-18 17:41:00,36.1,9.1,29.91,WNW,292,3.1,5.4,32,0.00,,---,0.00,VWS V14.01,2013-02-18 22:41:00,
2013-02-18 17:46:00,36.0,9.0,29.94,WNW,292,4.0,4.7,32,0.00,,---,0.00,VWS V14.01,2013-02-18 22:46:00,
2013-02-18 17:51:00,35.6,8.7,29.94,WNW,292,2.0,2.0,32,0.00,,---,0.00,VWS V14.01,2013-02-18 22:51:00,
2013-02-18 17:56:00,35.4,9.2,29.94,WNW,292,1.6,1.6,33,0.00,,---,0.00,VWS V14.01,2013-02-18 22:56:00,
2013-02-18 18:01:00,35.1,8.9,29.94,WNW,292,1.6,1.6,33,0.00,,---,0.00,VWS V14.01,2013-02-18 23:01:00,
2013-02-18 18:06:00,34.7,8.6,29.94,WSW,248,1.6,2.5,33,0.00,,---,0.00,VWS V14.01,2013-02-18 23:06:00,
2013-02-18 18:11:00,34.3,8.2,29.94,West,270,1.6,1.6,33,0.00,,---,0.00,VWS V14.01,2013-02-18 23:11:00,
2013-02-18 18:16:00,34.2,8.1,29.94,WSW,248,2.5,2.5,33,0.00,,---,0.00,VWS V14.01,2013-02-18 23:16:00,
2013-02-18 18:21:00,34.0,7.9,29.94,WNW,292,1.3,1.6,33,0.00,,---,0.00,VWS V14.01,2013-02-18 23:21:00,
2013-02-18 18:26:00,34.0,7.9,29.94,WSW,248,2.5,2.5,33,0.00,,---,0.00,VWS V14.01,2013-02-18 23:26:00,
2013-02-18 18:31:00,34.0,8.6,29.94,WNW,292,2.5,3.6,34,0.00,,---,0.00,VWS V14.01,2013-02-18 23:31:00,
2013-02-18 18:36:00,34.0,8.6,29.94,WNW,292,2.5,2.5,34,0.00,,---,0.00,VWS V14.01,2013-02-18 23:36:00,
2013-02-18 18:40:00,33.8,8.4,29.94,WNW,292,2.7,3.4,34,0.00,,---,0.00,VWS V14.01,2013-02-18 23:40:00,
2013-02-18 18:46:00,33.8,8.4,29.94,WSW,248,3.1,3.1,34,0.00,,---,0.00,VWS V14.01,2013-02-18 23:46:00,
2013-02-18 18:51:00,34.0,8.6,29.94,WNW,292,2.7,2.7,34,0.00,,---,0.00,VWS V14.01,2013-02-18 23:51:00,
2013-02-18 18:56:00,34.0,8.6,29.94,WNW,292,2.9,4.0,34,0.00,,---,0.00,VWS V14.01,2013-02-18 23:56:00,
2013-02-18 19:01:00,33.8,8.4,29.97,WSW,248,3.8,3.8,34,0.00,,---,0.00,VWS V14.01,2013-02-19 00:01:00,
2013-02-18 19:06:00,33.8,8.4,29.97,WNW,292,3.1,3.1,34,0.00,,---,0.00,VWS V14.01,2013-02-19 00:06:00,
2013-02-18 19:11:00,33.6,8.9,29.97,WNW,292,0.9,2.0,35,0.00,,---,0.00,VWS V14.01,2013-02-19 00:11:00,
2013-02-18 19:16:00,33.6,8.9,29.94,West,270,3.4,3.4,35,0.00,,---,0.00,VWS V14.01,2013-02-19 00:16:00,
2013-02-18 19:21:00,33.6,8.9,29.94,West,270,2.7,3.1,35,0.00,,---,0.00,VWS V14.01,2013-02-19 00:21:00,
2013-02-18 19:26:00,33.6,8.9,29.94,WSW,248,4.0,4.0,35,0.00,,---,0.00,VWS V14.01,2013-02-19 00:26:00,
2013-02-18 19:30:00,33.4,8.7,29.94,WSW,248,1.3,4.3,35,0.00,,---,0.00,VWS V14.01,2013-02-19 00:30:00,
2013-02-18 19:35:00,33.4,8.7,29.94,WNW,292,2.0,3.4,35,0.00,,---,0.00,VWS V14.01,2013-02-19 00:35:00,
2013-02-18 19:40:00,33.4,8.7,29.94,West,270,3.8,3.8,35,0.00,,---,0.00,VWS V14.01,2013-02-19 00:40:00,
2013-02-18 19:45:00,33.3,8.6,29.94,WNW,292,2.9,3.6,35,0.00,,---,0.00,VWS V14.01,2013-02-19 00:45:00,
2013-02-18 19:51:00,33.3,8.6,29.94,West,270,3.4,3.4,35,0.00,,---,0.00,VWS V14.01,2013-02-19 00:51:00,
2013-02-18 19:56:00,33.3,8.6,29.94,NNW,338,4.0,4.0,35,0.00,,---,0.00,VWS V14.01,2013-02-19 00:56:00,
2013-02-18 20:01:00,33.1,8.4,29.97,WNW,292,2.9,6.3,35,0.00,,---,0.00,VWS V14.01,2013-02-19 01:01:00,
2013-02-18 20:06:00,33.1,9.1,29.97,WSW,248,4.0,4.3,36,0.00,,---,0.00,VWS V14.01,2013-02-19 01:06:00,
2013-02-18 20:11:00,32.9,8.9,29.97,WSW,248,4.3,4.3,36,0.00,,---,0.00,VWS V14.01,2013-02-19 01:11:00,
2013-02-18 20:16:00,33.1,9.1,29.97,West,270,4.9,4.9,36,0.00,,---,0.00,VWS V14.01,2013-02-19 01:16:00,
2013-02-18 20:21:00,32.9,8.9,29.97,WNW,292,6.7,6.7,36,0.00,,---,0.00,VWS V14.01,2013-02-19 01:21:00,
2013-02-18 20:26:00,32.9,8.9,29.97,WSW,248,4.3,6.5,36,0.00,,---,0.00,VWS V14.01,2013-02-19 01:26:00,
2013-02-18 20:31:00,32.7,8.7,29.97,WSW,248,3.8,4.0,36,0.00,,---,0.00,VWS V14.01,2013-02-19 01:31:00,
2013-02-18 20:36:00,32.7,8.7,29.97,WSW,248,3.1,4.9,36,0.00,,---,0.00,VWS V14.01,2013-02-19 01:36:00,
2013-02-18 20:41:00,32.7,8.7,29.97,WSW,248,4.0,4.0,36,0.00,,---,0.00,VWS V14.01,2013-02-19 01:41:00,
2013-02-18 20:46:00,32.5,8.6,29.94,WNW,292,4.3,4.3,36,0.00,,---,0.00,VWS V14.01,2013-02-19 01:46:00,
2013-02-18 20:51:00,32.5,8.6,29.94,WSW,248,3.8,3.8,36,0.00,,---,0.00,VWS V14.01,2013-02-19 01:51:00,
2013-02-18 20:56:00,32.4,8.4,29.94,WSW,248,2.9,2.9,36,0.00,,---,0.00,VWS V14.01,2013-02-19 01:56:00,
2013-02-18 21:01:00,32.2,8.2,29.94,WSW,248,3.4,3.4,36,0.00,,---,0.00,VWS V14.01,2013-02-19 02:01:00,
2013-02-18 21:06:00,32.2,8.2,29.94,WSW,248,4.0,4.0,36,0.00,,---,0.00,VWS V14.01,2013-02-19 02:06:00,
2013-02-18 21:11:00,32.0,8.7,29.94,WSW,248,3.8,3.8,37,0.00,,---,0.00,VWS V14.01,2013-02-19 02:11:00,
2013-02-18 21:16:00,32.0,8.7,29.94,WSW,248,4.0,4.0,37,0.00,,---,0.00,VWS V14.01,2013-02-19 02:16:00,
2013-02-18 21:21:00,32.0,8.7,29.94,WSW,248,3.8,6.0,37,0.00,,---,0.00,VWS V14.01,2013-02-19 02:21:00,
2013-02-18 21:26:00,31.8,8.5,29.94,West,270,2.7,2.7,37,0.00,,---,0.00,VWS V14.01,2013-02-19 02:26:00,
2013-02-18 21:31:00,31.6,8.4,29.94,SW,225,3.1,3.4,37,0.00,,---,0.00,VWS V14.01,2013-02-19 02:31:00,
2013-02-18 21:36:00,31.6,9.0,29.94,WSW,248,1.3,4.0,38,0.00,,---,0.00,VWS V14.01,2013-02-19 02:36:00,
2013-02-18 21:41:00,31.3,8.6,29.94,SW,225,1.1,1.1,38,0.00,,---,0.00,VWS V14.01,2013-02-19 02:41:00,
2013-02-18 21:46:00,31.1,8.5,29.97,SW,225,1.1,1.1,38,0.00,,---,0.00,VWS V14.01,2013-02-19 02:46:00,
2013-02-18 21:51:00,31.1,8.5,29.97,SW,225,3.4,3.4,38,0.00,,---,0.00,VWS V14.01,2013-02-19 02:51:00,
2013-02-18 21:56:00,31.1,9.1,29.97,SW,225,2.5,4.0,39,0.00,,---,0.00,VWS V14.01,2013-02-19 02:56:00,
2013-02-18 22:01:00,30.9,9.4,29.97,SW,225,2.5,2.5,40,0.00,,---,0.00,VWS V14.01,2013-02-19 03:01:00,
2013-02-18 22:06:00,30.9,9.4,29.97,SSW,202,1.6,2.2,40,0.00,,---,0.00,VWS V14.01,2013-02-19 03:06:00,
2013-02-18 22:12:00,30.9,9.4,29.97,West,270,2.0,2.0,40,0.00,,---,0.00,VWS V14.01,2013-02-19 03:12:00,
2013-02-18 22:17:00,30.7,9.3,29.97,SW,225,2.0,2.9,40,0.00,,---,0.00,VWS V14.01,2013-02-19 03:17:00,
2013-02-18 22:22:00,30.9,9.4,29.97,WSW,248,3.1,3.1,40,0.00,,---,0.00,VWS V14.01,2013-02-19 03:22:00,
2013-02-18 22:27:00,30.7,9.3,29.97,SSW,202,2.0,2.0,40,0.00,,---,0.00,VWS V14.01,2013-02-19 03:27:00,
2013-02-18 22:32:00,30.7,9.3,29.97,WSW,248,1.6,2.0,40,0.00,,---,0.00,VWS V14.01,2013-02-19 03:32:00,
2013-02-18 22:37:00,30.6,9.1,29.97,WSW,248,1.3,1.3,40,0.00,,---,0.00,VWS V14.01,2013-02-19 03:37:00,
2013-02-18 22:42:00,30.4,9.0,29.97,SW,225,2.0,2.0,40,0.00,,---,0.00,VWS V14.01,2013-02-19 03:42:00,
2013-02-18 22:47:00,30.4,9.0,29.97,SSW,202,2.5,2.5,40,0.00,,---,0.00,VWS V14.01,2013-02-19 03:47:00,
2013-02-18 22:52:00,30.4,9.0,29.97,WSW,248,2.9,2.9,40,0.00,,---,0.00,VWS V14.01,2013-02-19 03:52:00,
2013-02-18 22:57:00,30.4,9.0,29.97,SSW,202,1.3,2.0,40,0.00,,---,0.00,VWS V14.01,2013-02-19 03:57:00,
2013-02-18 23:02:00,30.2,9.4,29.97,WSW,248,0.0,0.0,41,0.00,,---,0.00,VWS V14.01,2013-02-19 04:02:00,
2013-02-18 23:07:00,30.2,9.4,29.97,WSW,248,1.3,1.3,41,0.00,,---,0.00,VWS V14.01,2013-02-19 04:07:00,
2013-02-18 23:12:00,30.2,9.4,29.97,WSW,248,2.5,2.5,41,0.00,,---,0.00,VWS V14.01,2013-02-19 04:12:00,
2013-02-18 23:17:00,30.2,9.4,29.97,SSW,202,1.3,1.3,41,0.00,,---,0.00,VWS V14.01,2013-02-19 04:17:00,
2013-02-18 23:22:00,30.2,9.4,29.97,SW,225,2.0,2.0,41,0.00,,---,0.00,VWS V14.01,2013-02-19 04:22:00,
2013-02-18 23:27:00,30.4,9.5,29.94,SW,225,2.2,2.2,41,0.00,,---,0.00,VWS V14.01,2013-02-19 04:27:00,
2013-02-18 23:32:00,30.6,9.7,29.94,SSW,202,1.1,1.1,41,0.00,,---,0.00,VWS V14.01,2013-02-19 04:32:00,
2013-02-18 23:37:00,30.6,9.7,29.94,SSW,202,1.6,1.6,41,0.00,,---,0.00,VWS V14.01,2013-02-19 04:37:00,
2013-02-18 23:42:00,30.7,9.8,29.94,WSW,248,0.9,1.6,41,0.00,,---,0.00,VWS V14.01,2013-02-19 04:42:00,
2013-02-18 23:47:00,30.7,9.8,29.94,WSW,248,2.5,2.5,41,0.00,,---,0.00,VWS V14.01,2013-02-19 04:47:00,
2013-02-18 23:52:00,30.7,9.8,29.94,WSW,248,2.7,2.7,41,0.00,,---,0.00,VWS V14.01,2013-02-19 04:52:00,
2013-02-18 23:57:00,30.9,10.0,29.94,SW,225,4.9,4.9,41,0.00,,---,0.00,VWS V14.01,2013-02-19 04:57:00,